CW2099 Weather Reports


time (UTC)temp
F
wind
direction
speed
knots
gust
knots
rain 1hr
in
rain 24hr
in
rain mn
in
humidity
%
barometer
mb
20260906161542 71 315 0.9 2.6 0.00 0.00 0.00 61 1020.0
20260906160040 71 311 0.9 1.7 0.00 0.00 0.00 61 1020.0
20260906154539 70 303 0.9 1.7 0.00 0.00 0.00 61 1020.0
20260906153039 69 284 0.0 1.7 0.00 0.00 0.00 62 1020.0
20260906151532 68 284 1.7 3.5 0.00 0.00 0.00 62 1019.9
20260906150028 68 306 0.0 1.7 0.00 0.00 0.00 64 1020.1
20260906144525 67 306 0.0 1.7 0.00 0.00 0.00 66 1020.1
20260906143024 67 306 0.0 0.9 0.00 0.00 0.00 67 1020.1
20260906141523 67 286 0.0 0.0 0.00 0.00 0.00 69 1020.3
20260906140020 65 286 0.0 0.0 0.00 0.00 0.00 72 1020.2
20260906134516 63 286 0.0 0.0 0.00 0.00 0.00 75 1020.0
20260906133013 62 286 0.0 2.6 0.00 0.00 0.00 76 1020.0
20260906131520 60 286 0.0 1.7 0.00 0.00 0.00 78 1019.8
20260906130009 59 286 0.0 0.0 0.00 0.00 0.00 83 1019.9
20260906124511 58 286 0.0 0.0 0.00 0.00 0.00 85 1019.8
20260906123006 58 286 0.0 0.0 0.00 0.00 0.00 84 1019.6
20260906121508 58 286 0.0 0.0 0.00 0.00 0.00 84 1019.6
20260906120007 57 286 0.0 0.0 0.00 0.00 0.00 84 1019.5
20260906114506 57 286 0.0 0.0 0.00 0.00 0.00 85 1019.4
20260906113007 57 286 0.0 0.0 0.00 0.00 0.00 85 1019.2
20260906111504 57 286 0.0 0.0 0.00 0.00 0.00 85 1019.2
20260906110005 57 286 0.0 0.0 0.00 0.00 0.00 85 1019.0
20260906104504 57 286 0.0 0.0 0.00 0.00 0.00 84 1018.9
20260906103003 57 286 0.0 0.0 0.00 0.00 0.00 85 1019.0
20260906101502 57 286 0.0 0.0 0.00 0.00 0.00 85 1018.8
20260906100002 57 286 0.0 0.0 0.00 0.00 0.00 84 1018.9
20260906094501 57 286 0.0 0.0 0.00 0.00 0.00 84 1018.9
20260906093100 57 286 0.0 0.0 0.00 0.00 0.00 84 1019.1
20260906090108 57 286 0.0 0.0 0.00 0.00 0.00 84 1019.2
20260906084559 57 286 0.0 0.0 0.00 0.00 0.00 84 1019.0
20260906083056 58 286 0.0 0.0 0.00 0.00 0.00 84 1019.2
20260906080201 58 286 0.0 0.0 0.00 0.00 0.00 84 1019.1
20260906074558 58 286 0.0 0.0 0.00 0.00 0.00 84 1019.2
20260906073050 58 286 0.0 0.9 0.00 0.00 0.00 84 1018.9
20260906070047 59 286 0.0 0.0 0.00 0.00 0.00 83 1018.8
20260906064546 59 286 0.0 0.0 0.00 0.00 0.00 83 1018.8
20260906063044 59 286 0.0 0.0 0.00 0.00 0.00 83 1018.9
20260906060054 60 286 0.0 0.0 0.00 0.00 0.00 82 1018.9
20260906054540 60 286 0.0 0.0 0.00 0.00 0.00 83 1018.6
20260906053038 60 286 0.0 0.0 0.00 0.00 0.00 82 1018.4
20260906050035 61 286 0.0 0.0 0.00 0.00 0.00 82 1018.2
20260906044535 61 286 0.0 0.0 0.00 0.00 0.00 81 1018.1
20260906043036 61 286 0.0 0.0 0.00 0.00 0.00 80 1018.1
20260906040030 62 286 0.0 0.0 0.00 0.00 0.00 80 1017.8
20260906034534 62 286 0.0 0.0 0.00 0.00 0.00 79 1017.7
20260906033032 62 286 0.0 0.0 0.00 0.00 0.00 79 1017.5
20260906030029 63 286 0.0 0.0 0.00 0.00 0.00 77 1017.5
20260906024528 63 286 0.0 0.0 0.00 0.00 0.00 77 1017.4
20260906023032 64 286 0.0 0.0 0.00 0.00 0.00 76 1017.4
20260906020030 64 286 0.0 0.0 0.00 0.00 0.00 75 1017.3
20260906014534 65 286 0.0 0.0 0.00 0.00 0.00 74 1017.1
20260906013028 65 286 0.0 0.0 0.00 0.00 0.00 73 1016.9
20260906010027 67 286 0.0 0.0 0.00 0.00 0.00 71 1016.8
20260906004527 68 286 0.0 0.0 0.00 0.00 0.00 70 1016.7
20260906003026 70 286 0.0 1.7 0.00 0.00 0.00 68 1016.6
20260906000026 71 286 0.0 0.9 0.00 0.00 0.00 64 1016.5
20260905234525 73 286 0.0 2.6 0.00 0.00 0.00 61 1016.4
20260905233024 73 286 2.6 3.5 0.00 0.00 0.00 59 1016.3
20260905230025 73 305 0.0 2.6 0.00 0.01 0.00 60 1016.3
20260905224525 74 305 0.0 1.7 0.00 0.01 0.00 59 1016.4
20260905223025 74 305 0.0 2.6 0.00 0.01 0.00 57 1016.4
20260905220023 74 287 0.0 1.7 0.00 0.01 0.00 58 1016.5
20260905214523 74 287 0.0 0.0 0.00 0.01 0.00 60 1016.6
20260905213031 74 287 0.0 0.9 0.00 0.01 0.00 58 1016.7
20260905210029 75 287 0.0 1.7 0.00 0.01 0.00 57 1016.5
20260905204523 75 287 0.0 0.0 0.00 0.01 0.00 57 1016.4
20260905203022 75 287 0.0 1.7 0.00 0.01 0.00 58 1016.7
20260905200020 74 281 0.9 2.6 0.00 0.02 0.00 58 1016.5
20260905194517 74 266 4.3 7.0 0.00 0.02 0.00 59 1016.6
20260905193017 74 275 0.0 3.5 0.00 0.02 0.00 61 1016.6
20260905190013 73 275 0.0 2.6 0.00 0.02 0.00 60 1016.7
20260905184512 73 269 4.3 7.0 0.00 0.02 0.00 61 1016.9
20260905183010 73 279 2.6 6.1 0.00 0.02 0.00 61 1016.9
20260905180007 72 273 0.9 7.0 0.00 0.02 0.00 61 1017.0
20260905174512 72 265 3.5 9.6 0.00 0.02 0.00 61 1017.1
20260905173008 71 270 2.6 7.0 0.00 0.02 0.00 64 1017.2
20260905170106 70 265 4.3 10.4 0.00 0.02 0.00 65 1017.4
20260905164556 70 296 3.5 7.0 0.00 0.02 0.00 66 1017.6
20260905163054 69 269 5.2 7.8 0.00 0.02 0.00 65 1017.6